Location: Saint Louis
(38.6272°N, 90.1978°W)
Time: 20:31:13
(UTC-05:00)

ISS - Pass Details

Date: 10 September 2013
Orbit: 400 x 403 km, 51.6° (Epoch: 23 August)

Event Time Altitude Azimuth Distance (km) Brightness Sun altitude
Rises 06:05:47 0° 205° (SSW) 2,360 0.2 -7.1°
Reaches altitude 10° 06:08:05 10° 192° (SSW) 1,492 -0.7 -6.6°
Maximum altitude 06:10:56 26° 133° (SE) 847 -1.3 -6.1°
Drops below altitude 10° 06:13:47 10° 74° (ENE) 1,481 1.4 -5.5°
Sets 06:16:03 0° 62° (ENE) 2,339 2.2 -5.1°
